Date String (YYYY-MM-DD hh:mm:ss) UTC,Instrument flags,Ambient pressure (hPa),Sample flow (lpm),Bypass flow (lpm),Sample temperature (°C),Ambient temperature (°C),ASC tube jacket temperature (°C),LED temperature (°C),Box temperature (°C),Sample RH (%),Span deviation,Mass concentration (μg/m³),Mass concentration (μg/m³),Mass concentration (μg/m³)
DateTimeUTC,F1_M11,P_M11,Q1_M11,Q2_M11,T1_M11,T2_M11,T3_M11,T4_M11,T5_M11,U1_M11,ZSPAN_M11,X2_M11,X0_M11,X1_M11
2023-01-04 18:00:00,,0822.9,5.01,0.00,22.2,20.8,00.0,31.2,23.8,06.8,0000.0,0001.79,0003.86,0001.48
2023-01-04 18:01:00,,0823.2,5.02,0.00,22.3,21.9,00.0,31.1,24.2,07.3,0000.0,0001.98,0004.45,0001.65
2023-01-04 18:02:00,,0823.2,5.00,0.00,22.4,22.9,00.0,31.1,24.5,07.9,0000.0,0003.33,0007.63,0003.06
2023-01-04 18:03:00,,0823.1,4.99,0.00,22.5,22.7,00.0,31.2,24.6,07.7,0000.0,0004.06,0008.46,0003.82
2023-01-04 18:04:00,,0823.1,4.99,0.00,22.5,22.0,00.0,31.2,24.4,07.9,0000.0,0004.91,0009.33,0004.70
2023-01-04 18:05:00,,0823.0,5.00,0.00,22.4,21.6,00.0,31.3,24.2,07.7,0000.0,0005.55,0010.77,0005.32
2023-01-04 18:06:00,,0823.2,5.00,0.00,22.4,21.3,00.0,31.3,24.1,07.7,0000.0,0005.75,0011.09,0005.54
2023-01-04 18:07:00,,0823.1,5.01,0.00,22.3,21.0,00.0,31.2,24.0,08.1,0000.0,0006.04,0011.35,0005.84
2023-01-04 18:08:00,,0823.1,5.00,0.00,22.3,20.9,00.0,31.2,23.9,08.4,0000.0,0006.55,0011.19,0006.36
2023-01-04 18:09:00,,0823.2,5.00,0.00,22.3,20.9,00.0,31.2,24.0,09.2,0000.0,0007.31,0012.14,0007.07
2023-01-04 18:10:00,,0823.1,5.00,0.00,22.3,21.0,00.0,31.2,24.0,08.8,0000.0,0008.05,0013.00,0007.78
2023-01-04 18:11:00,,0823.1,4.99,0.00,22.3,21.0,00.0,31.2,24.0,08.9,-000.2,0008.78,0013.89,0008.46
2023-01-04 18:12:00,,0823.1,4.99,0.00,22.3,21.0,00.0,31.2,24.0,08.5,-001.3,0009.33,0014.57,0008.99
2023-01-04 18:13:00,,0823.2,4.99,0.00,22.3,21.1,00.0,31.2,24.1,07.8,-000.6,0009.01,0013.55,0008.70
2023-01-04 18:14:00,,0823.3,5.00,0.00,22.3,21.1,00.0,31.2,24.1,08.2,0000.0,0008.74,0014.32,0008.41
2023-01-04 18:15:00,,0823.2,5.01,0.00,22.3,21.1,00.0,31.2,24.1,08.7,0000.0,0008.53,0014.69,0008.20
2023-01-04 18:16:00,,0823.3,5.00,0.00,22.3,21.1,00.0,31.2,24.1,09.1,0000.0,0008.43,0014.40,0008.06
2023-01-04 18:17:00,,0823.2,4.99,0.00,22.3,21.1,00.0,31.2,24.1,09.5,0000.0,0008.71,0014.33,0008.34
2023-01-04 18:18:00,,0823.3,4.99,0.00,22.4,21.2,00.0,31.2,24.1,09.4,-000.6,0009.00,0014.67,0008.62
2023-01-04 18:19:00,,0823.1,5.00,0.00,22.4,21.2,00.0,31.2,24.1,09.5,-001.2,0009.24,0014.96,0008.82
2023-01-04 18:20:00,,0823.0,5.00,0.00,22.4,21.2,00.0,31.2,24.2,09.5,-002.3,0009.65,0015.40,0009.20
2023-01-04 18:21:00,,0823.2,5.00,0.00,22.4,21.2,00.0,31.2,24.2,09.4,-001.9,0010.20,0016.05,0009.71
2023-01-04 18:22:00,,0823.4,5.00,0.00,22.4,21.2,00.0,31.2,24.2,09.4,-001.8,0010.56,0016.38,0010.08
2023-01-04 18:23:00,,0823.4,4.99,0.00,22.4,21.2,00.0,31.2,24.2,09.5,-002.1,0011.02,0016.78,0010.55
2023-01-04 18:24:00,,0823.3,4.99,0.00,22.5,21.3,00.0,31.2,24.2,09.4,-001.9,0011.50,0017.17,0011.00
2023-01-04 18:25:00,,0823.2,5.00,0.00,22.5,21.3,00.0,31.2,24.2,08.9,-001.6,0011.87,0016.26,0011.37
2023-01-04 18:26:00,,0823.3,5.00,0.00,22.5,21.3,00.0,31.2,24.3,08.8,-001.0,0011.97,0015.62,0011.47
2023-01-04 18:27:00,,0823.3,5.00,0.00,22.5,21.3,00.0,31.2,24.3,08.5,-000.6,0011.92,0015.38,0011.44
2023-01-04 18:28:00,,0823.2,5.00,0.00,22.5,21.4,00.0,31.3,24.3,08.2,-000.6,0011.63,0014.94,0011.17
2023-01-04 18:29:00,,0823.2,5.00,0.00,22.6,21.4,00.0,31.3,24.3,08.3,-000.4,0011.36,0014.70,0010.91
2023-01-04 18:30:00,,0823.3,5.00,0.00,22.6,21.4,00.0,31.3,24.3,08.4,-000.2,0011.03,0014.53,0010.59
2023-01-04 18:31:00,,0823.2,5.00,0.00,22.6,21.4,00.0,31.3,24.3,09.0,-000.3,0010.62,0013.99,0010.20
2023-01-04 18:32:00,,0823.1,5.00,0.00,22.6,21.4,00.0,31.3,24.4,09.2,-000.5,0010.12,0013.36,0009.74
2023-01-04 18:33:00,,0823.2,5.00,0.00,22.6,21.4,00.0,31.3,24.4,09.2,-000.3,0009.79,0013.06,0009.43
2023-01-04 18:34:00,,0823.0,5.00,0.00,22.6,21.4,00.0,31.3,24.3,09.2,0000.1,0009.52,0012.84,0009.14
2023-01-04 18:35:00,,0823.0,5.01,0.00,22.6,21.5,00.0,31.3,24.4,09.0,0000.1,0009.28,0012.71,0008.88
2023-01-04 18:36:00,,0823.0,5.01,0.00,22.6,21.5,00.0,31.3,24.4,09.0,-000.2,0009.31,0012.79,0008.92
2023-01-04 18:37:00,,0822.9,5.02,0.00,22.6,21.5,00.0,31.3,24.4,08.2,-001.6,0009.10,0012.69,0008.72
2023-01-04 18:38:00,,0822.9,5.00,0.00,22.6,21.4,00.0,31.4,24.3,08.0,-002.3,0008.90,0012.62,0008.48
2023-01-04 18:39:00,,0822.8,4.99,0.00,22.6,21.4,00.0,31.4,24.3,07.5,-002.6,0008.66,0012.42,0008.25
2023-01-04 18:40:00,,0822.8,5.00,0.00,22.6,21.4,00.0,31.4,24.2,07.2,-002.7,0008.30,0012.30,0007.90
2023-01-04 18:41:00,,0822.9,5.00,0.00,22.6,21.3,00.0,31.4,24.2,07.0,-001.0,0007.82,0011.59,0007.45
2023-01-04 18:42:00,,0823.1,4.99,0.00,22.6,21.3,00.0,31.4,24.2,07.6,0000.0,0007.34,0011.13,0007.01
2023-01-04 18:43:00,,0822.9,5.01,0.00,22.6,21.2,00.0,31.4,24.1,07.1,0000.0,0006.68,0011.13,0006.36
2023-01-04 18:44:00,,0822.7,5.00,0.00,22.5,21.1,00.0,31.4,24.1,07.2,0000.0,0006.01,0010.52,0005.71
2023-01-04 18:45:00,,0822.8,5.00,0.00,22.5,21.1,00.0,31.4,24.0,06.9,0000.0,0005.23,0009.55,0004.95
2023-01-04 18:46:00,,0823.0,5.01,0.00,22.5,21.0,00.0,31.4,24.0,07.6,0000.0,0004.61,0008.76,0004.38
2023-01-04 18:47:00,,0823.0,5.00,0.00,22.5,21.0,00.0,31.4,24.0,07.7,0000.0,0004.32,0008.45,0004.08
2023-01-04 18:48:00,,0823.0,5.01,0.00,22.4,20.9,00.0,31.4,24.0,07.6,0000.0,0004.49,0008.61,0004.24
2023-01-04 18:49:00,,0822.9,5.00,0.00,22.4,20.9,00.0,31.3,24.0,07.9,0000.0,0004.90,0008.99,0004.64
2023-01-04 18:50:00,,0822.9,4.99,0.00,22.4,20.9,00.0,31.3,23.9,07.9,0000.0,0005.64,0009.79,0005.36
2023-01-04 18:51:00,,0822.9,5.00,0.00,22.4,20.8,00.0,31.3,23.9,07.4,0000.0,0005.97,0009.84,0005.67
2023-01-04 18:52:00,,0822.9,5.01,0.00,22.3,20.8,00.0,31.3,23.9,08.3,0000.0,0006.74,0010.74,0006.44
2023-01-04 18:53:00,,0823.0,5.00,0.00,22.3,20.7,00.0,31.3,23.8,08.7,0000.0,0007.92,0012.32,0007.56
2023-01-04 18:54:00,,0823.0,5.00,0.00,22.2,20.6,00.0,31.3,23.8,08.6,-000.6,0009.06,0013.21,0008.68
2023-01-04 18:55:00,,0823.0,5.00,0.00,22.2,20.5,00.0,31.2,23.7,07.3,-000.5,0009.63,0013.60,0009.25
2023-01-04 18:56:00,,0823.0,4.99,0.00,22.1,20.5,00.0,31.2,23.7,08.1,-000.5,0010.38,0014.48,0009.93
2023-01-04 18:57:00,,0823.1,5.01,0.00,22.1,20.4,00.0,31.2,23.6,08.3,-000.6,0011.31,0015.54,0010.87
2023-01-04 18:58:00,,0823.1,5.01,0.00,22.0,20.6,00.0,31.1,23.6,09.1,-000.5,0012.08,0016.42,0011.62
2023-01-04 18:59:00,,0823.2,5.00,0.00,22.1,21.7,00.0,31.0,24.0,09.5,-000.3,0013.06,0018.09,0012.58
